{"data":{"norad_id":60049,"intl_designator":"2024-112M","name":"STARLINK-11151 [DTC]","alt_names":[],"object_type":"PAYLOAD","status":"ACTIVE","operator":null,"country":"US","launch_date":"2024-06-08","launch_site_code":"AFWTR","launch_vehicle":null,"mission":null,"orbit_class":"UNKNOWN","rcs_meters":null,"size_class":null,"mass_kg":null,"dimensions":null,"purposes":["comms"],"wikipedia_slug":null,"has_3d_model":false,"image_url":null,"decayed_at":null,"tle_current":{"epoch":"2026-05-24T16:58:14.749824Z","epoch_age_seconds":100118,"freshness":"FRESH","line1":"1 60049U 24112M   26144.70711516  .00000154  00000+0  61369-5 0  9993","line2":"2 60049  53.1590 251.2899 0001249  79.9623 280.1536 15.69701026112929","mean_motion":15.69701026,"eccentricity":0.0001249,"inclination_deg":53.159,"raan_deg":251.2899,"arg_perigee_deg":79.9623,"mean_anomaly_deg":280.1536,"bstar":6.1369e-6,"rev_number":11292,"period_min":91.737214676446,"perigee_km":358.91086830517,"apogee_km":360.59399308496,"semimajor_km":6737.8894306951,"source":"CELESTRAK","updated_at":"2026-05-25T13:38:19.154385Z"}}}